Wind_Speed
10 18 17 12 13 16 17 21 26 27 26 21 25 42 39 37 32 34 36 35 36 35 32 32 32 30 29 28 28 29 29 28 27 26 27 28 28 27 25 26 25 28 28 31
13 24 18 12 14 21 24 26 30 30 27 22 18 33 29 40 41 39 35 37 38 37 35 35 34 30 30 30 30 31 31 29 27 27 28 28 28 25 25 26 27 30 32 33
25 25 12 20 19 22 24 24 27 27 30 26 24 31 32 35 34 37 40 39 38 38 35 34 33 29 30 30 32 32 31 30 29 27 28 27 25 24 24 26 29 32 33 33
31 29 28 25 27 26 30 24 22 22 24 26 22 20 34 34 34 39 40 42 41 36 36 32 29 27 27 29 33 33 31 31 29 27 26 25 24 23 24 26 29 30 33 32
38 31 27 29 32 29 32 30 22 26 26 30 28 23 27 26 38 40 44 44 43 39 36 30 26 26 26 29 33 33 32 30 29 27 25 23 22 23 24 26 28 30 31 31
41 40 35 34 28 25 28 27 27 26 25 21 24 19 27 35 35 33 38 47 45 42 40 34 30 29 29 29 31 32 32 30 28 26 24 23 23 24 24 26 27 29 29 30
39 45 41 43 40 35 26 21 9 6 7 9 21 21 38 10 21 33 38 42 47 43 40 37 32 29 28 29 26 29 30 28 27 25 24 23 24 24 24 26 28 29 30 30
29 28 24 28 46 40 38 27 18 7 6 5 20 14 25 26 29 31 31 31 45 42 37 32 33 31 31 30 26 28 27 26 26 25 24 24 24 25 25 27 29 31 31 31
20 37 33 28 30 35 41 44 37 35 36 8 9 17 16 19 14 16 20 27 33 35 34 33 32 32 33 31 25 26 24 25 26 25 25 25 25 25 27 28 30 32 32 31
16 32 32 39 31 33 34 46 31 29 12 13 20 17 21 13 15 17 24 31 35 34 35 35 36 35 34 32 24 23 25 26 26 25 26 26 26 27 28 29 31 31 31 31
27 25 20 26 34 31 24 42 30 23 28 12 4 11 21 27 32 22 22 26 27 33 35 34 36 38 37 30 21 22 23 26 26 27 28 27 27 28 28 30 31 32 32 32
30 24 21 31 35 19 14 20 33 23 16 11 26 31 11 4 8 7 13 14 18 23 28 34 38 39 35 22 18 18 23 27 29 30 29 28 27 28 29 30 32 32 31 30
9 7 9 15 24 32 27 16 15 12 10 26 19 24 22 22 15 13 13 17 18 21 28 35 38 36 25 21 18 20 23 27 31 31 30 27 27 27 28 30 32 31 29 28
32 23 21 13 20 20 29 26 17 17 13 21 28 33 42 37 37 33 32 25 28 32 34 32 31 29 24 26 24 24 27 31 30 31 29 27 26 27 28 30 30 29 27 27
32 32 31 29 34 37 41 38 37 30 22 16 28 26 47 41 27 28 25 28 28 31 32 30 30 32 36 32 30 27 28 30 32 32 30 26 25 27 28 29 28 27 27 27
26 26 26 32 32 41 33 29 29 32 35 35 34 39 37 34 30 26 30 27 27 31 32 31 39 42 41 36 32 32 29 29 33 33 29 26 26 26 27 28 27 26 27 28
35 33 31 33 42 31 23 27 28 33 36 34 33 32 34 32 31 31 30 31 33 34 34 41 44 44 42 34 31 29 31 33 32 30 28 26 24 25 26 27 27 26 27 28
37 37 30 21 28 16 22 31 29 28 23 23 29 28 32 24 23 22 28 37 37 39 37 40 46 46 42 37 35 32 34 31 30 27 26 23 22 25 25 25 26 27 27 27
45 33 26 17 27 31 33 23 16 13 20 20 28 24 19 23 21 19 23 28 33 33 34 40 43 42 38 41 38 34 33 27 25 26 23 20 23 24 24 25 26 27 26 26
27 37 35 24 16 12 37 26 26 34 29 25 20 28 22 15 23 25 27 27 26 25 27 29 31 36 39 31 33 40 38 27 24 22 20 21 22 23 23 25 26 25 25 24
21 27 28 31 20 19 32 25 18 21 30 26 19 24 21 26 26 25 25 26 22 22 24 25 27 35 37 30 34 39 31 23 20 20 21 20 21 23 23 25 25 24 24 23
31 30 30 29 18 11 22 14 11 17 22 25 24 24 23 20 20 20 23 26 28 30 31 29 25 29 30 35 37 31 24 20 20 20 20 20 22 23 24 25 24 23 23 23
28 29 35 26 20 18 18 21 22 20 21 26 28 31 23 15 21 22 24 27 28 29 29 27 25 27 29 32 31 23 19 19 19 19 20 20 23 23 25 24 23 23 23 23
17 24 26 28 30 30 34 25 29 33 28 28 28 30 30 28 20 19 20 21 21 18 17 20 19 22 27 29 21 18 19 17 18 20 20 21 23 24 24 23 23 23 23 23
26 25 26 26 27 31 34 28 28 33 35 31 25 22 25 22 20 23 26 27 20 19 16 18 21 21 20 17 17 18 18 16 18 19 21 22 24 24 24 23 23 22 23 24
27 25 23 24 27 28 27 29 27 21 25 36 18 27 27 23 24 22 24 21 16 14 13 17 17 16 15 16 16 17 16 15 18 20 22 23 23 24 23 22 23 23 24 24
Wind_Direction
262 271 263 264 253 264 270 274 280 277 263 266 281 231 230 235 232 240 243 250 256 265 267 263 261 259 257 253 250 251 254 260 268 277 284 291 294 294 295 299 307 309 312 311
259 252 263 270 258 259 264 269 272 280 278 285 283 219 235 240 243 248 256 252 255 258 264 260 259 256 251 249 249 250 254 261 268 277 285 288 290 293 297 305 310 312 314 314
247 253 253 251 268 256 264 268 273 279 275 265 277 244 237 250 249 241 248 251 253 259 265 261 259 256 250 249 250 251 255 262 268 276 281 286 287 292 301 308 312 316 316 319
259 255 249 258 265 261 273 268 275 277 274 277 262 247 239 243 254 235 237 249 248 259 267 262 257 253 251 251 252 252 253 260 268 273 278 280 287 295 301 308 315 320 320 321
243 256 254 254 257 257 266 273 267 271 269 270 269 265 252 251 247 243 235 237 249 258 263 263 263 265 261 256 256 254 254 257 265 271 275 281 288 292 302 312 320 323 323 319
260 255 248 255 259 268 267 261 259 266 265 264 262 262 267 246 243 262 252 235 238 245 253 257 261 266 267 261 259 258 257 259 262 268 273 280 284 292 304 313 319 322 322 319
260 257 258 243 254 252 264 255 237 266 235 250 243 237 244 253 244 246 251 231 228 238 246 256 262 271 274 270 266 260 258 256 261 264 269 276 283 292 303 311 316 322 322 318
264 275 265 248 232 245 250 234 212 205 224 277 247 239 247 260 266 259 253 239 226 235 245 256 258 268 276 274 265 257 256 255 259 262 267 274 281 290 302 308 316 321 320 318
281 264 258 255 262 247 240 232 238 238 249 297 257 258 252 269 264 256 230 221 224 234 242 253 256 269 271 269 262 256 261 258 259 261 265 272 280 291 299 309 315 319 317 317
286 291 260 254 249 245 254 240 228 230 228 239 257 254 251 260 269 238 217 217 227 236 241 246 254 263 265 264 254 255 265 265 263 262 267 274 281 288 297 309 313 314 315 314
297 279 272 265 250 269 270 222 222 232 224 231 248 254 268 254 256 260 241 233 235 237 240 250 256 258 259 258 257 267 269 271 269 265 267 273 281 289 301 307 310 312 313 312
292 289 277 264 251 236 258 248 230 232 241 238 229 241 212 245 322 273 258 258 248 242 248 249 250 256 259 258 270 274 273 275 273 267 268 274 282 292 300 306 310 309 309 310
263 261 309 294 265 246 265 264 255 286 256 244 242 257 237 262 267 318 274 266 253 249 249 244 247 246 252 256 268 276 277 278 274 267 266 273 283 292 300 305 305 305 309 310
285 281 273 267 283 282 294 270 269 307 274 263 253 257 251 255 259 280 287 256 267 254 248 246 242 253 255 257 261 266 277 274 270 262 263 272 283 292 300 303 302 306 309 310
266 277 269 285 292 288 282 280 290 281 279 263 268 275 263 261 273 276 282 257 246 242 238 245 256 258 262 255 272 268 272 274 275 266 267 274 283 293 297 300 303 307 308 309
275 260 263 263 269 290 271 266 267 258 276 275 273 281 271 274 271 258 272 245 245 240 240 248 257 258 258 263 271 263 269 275 277 265 266 273 283 291 297 301 304 306 308 311
265 265 280 275 279 279 273 265 268 273 266 264 259 266 286 283 272 252 258 262 257 253 236 250 259 252 254 259 265 262 268 288 277 261 263 272 285 294 298 302 303 305 310 309
257 258 265 271 287 269 270 290 276 260 262 260 272 274 274 276 283 280 272 258 256 250 250 249 252 249 253 247 252 259 286 287 268 255 263 277 290 294 296 300 301 307 307 308
256 251 256 257 274 268 276 263 218 243 268 269 269 257 252 269 278 281 276 264 260 244 252 247 255 242 243 244 254 274 273 279 257 255 268 285 290 293 296 299 304 305 304 307
249 255 249 247 242 259 269 264 260 291 266 273 264 267 247 271 291 294 288 280 267 266 243 231 232 232 237 255 278 268 276 267 255 264 278 285 290 292 296 300 303 302 303 307
269 239 239 247 248 254 265 271 286 270 265 256 264 296 274 280 277 280 281 274 261 240 234 230 232 249 258 268 263 269 273 260 260 272 279 287 289 290 297 298 301 299 302 307
259 258 255 258 259 274 295 289 277 275 272 276 285 277 272 269 281 283 275 260 243 244 240 243 269 261 263 261 264 265 260 257 268 275 282 286 286 293 296 298 296 299 302 307
259 258 258 246 250 262 259 263 279 275 276 273 271 270 273 279 280 281 274 276 256 245 249 256 251 251 258 260 259 252 251 261 273 278 281 284 288 294 294 296 295 299 302 306
272 273 276 269 262 270 269 274 269 276 278 279 279 279 275 274 272 277 268 276 279 269 259 249 250 251 248 247 244 248 256 270 272 277 281 287 291 292 293 293 295 299 302 304
280 289 291 280 272 277 277 290 279 267 272 271 268 270 273 277 276 275 275 269 258 258 264 258 245 237 232 241 249 258 266 270 273 277 286 290 292 293 293 293 297 300 303 306
284 289 281 292 298 292 287 289 298 289 262 266 273 294 285 283 279 280 264 248 242 241 240 240 225 226 242 252 262 268 279 275 277 287 289 293 294 293 291 293 295 300 304 306
Height
3106 3106 3104 3105 3106 3107 3108 3107 3105 3106 3104 3106 3102 3101 3103 3106 3107 3108 3110 3112 3112 3112 3113 3114 3114 3117 3118 3119 3121 3121 3121 3121 3122 3121 3120 3118 3116 3115 3113 3111 3109 3106 3104 3100
3103 3099 3101 3103 3104 3105 3105 3103 3100 3099 3099 3100 3097 3096 3097 3098 3100 3101 3102 3103 3104 3105 3106 3107 3107 3110 3112 3113 3114 3114 3115 3115 3115 3115 3114 3112 3110 3109 3107 3104 3102 3098 3095 3092
3096 3095 3099 3101 3100 3100 3099 3099 3098 3097 3094 3092 3094 3093 3094 3091 3094 3096 3095 3097 3097 3097 3099 3099 3101 3103 3105 3107 3107 3109 3109 3108 3109 3110 3108 3107 3105 3103 3101 3099 3095 3092 3087 3085
3086 3089 3092 3093 3094 3097 3093 3096 3095 3094 3092 3087 3090 3086 3087 3091 3085 3088 3090 3088 3087 3089 3090 3092 3095 3097 3099 3101 3100 3102 3102 3102 3103 3102 3102 3100 3099 3097 3096 3093 3090 3087 3082 3079
3076 3082 3086 3087 3088 3091 3088 3091 3091 3090 3086 3084 3083 3083 3078 3083 3077 3077 3080 3083 3081 3081 3083 3087 3089 3091 3092 3094 3093 3095 3096 3096 3096 3096 3096 3095 3093 3092 3090 3088 3085 3081 3077 3073
3073 3078 3079 3079 3082 3084 3086 3085 3085 3084 3082 3073 3079 3081 3064 3071 3071 3068 3070 3075 3074 3073 3075 3079 3083 3084 3085 3087 3087 3088 3089 3090 3091 3090 3089 3089 3088 3087 3085 3082 3080 3077 3073 3069
3070 3066 3067 3073 3073 3076 3078 3079 3078 3079 3078 3065 3070 3073 3057 3063 3064 3064 3060 3067 3068 3067 3070 3073 3075 3076 3078 3081 3081 3081 3082 3083 3084 3083 3083 3083 3082 3081 3080 3077 3075 3071 3067 3062
3063 3056 3059 3060 3059 3064 3066 3073 3068 3073 3071 3062 3064 3057 3055 3056 3057 3058 3057 3058 3060 3062 3065 3067 3068 3069 3071 3074 3075 3074 3075 3076 3076 3077 3077 3077 3077 3076 3074 3071 3068 3064 3061 3056
3055 3046 3054 3055 3057 3059 3059 3056 3063 3062 3060 3062 3056 3055 3053 3050 3052 3052 3052 3052 3054 3057 3060 3061 3062 3063 3065 3067 3069 3068 3069 3071 3070 3070 3071 3071 3070 3069 3068 3065 3062 3059 3055 3051
3050 3038 3043 3045 3048 3046 3048 3052 3055 3053 3054 3058 3045 3050 3046 3046 3047 3048 3047 3048 3048 3050 3054 3056 3057 3057 3058 3060 3063 3062 3062 3064 3065 3065 3065 3065 3064 3062 3061 3059 3056 3053 3048 3044
3044 3044 3038 3040 3039 3040 3041 3038 3042 3042 3043 3044 3046 3040 3040 3041 3042 3043 3045 3046 3047 3047 3048 3050 3050 3050 3051 3053 3056 3057 3057 3058 3059 3059 3058 3057 3057 3056 3054 3053 3050 3046 3042 3039
3042 3041 3030 3032 3034 3034 3037 3035 3034 3030 3035 3035 3036 3030 3036 3035 3036 3039 3041 3041 3043 3044 3044 3045 3045 3045 3047 3049 3049 3050 3051 3052 3052 3052 3052 3052 3051 3049 3048 3046 3043 3040 3036 3031
3037 3034 3031 3021 3026 3029 3031 3032 3029 3029 3029 3026 3032 3024 3035 3033 3034 3036 3037 3037 3038 3040 3039 3037 3038 3037 3041 3044 3044 3044 3045 3046 3046 3046 3046 3046 3044 3043 3042 3039 3037 3033 3028 3024
3033 3031 3033 3028 3027 3028 3025 3023 3025 3030 3028 3024 3020 3019 3019 3027 3028 3031 3031 3029 3029 3028 3028 3029 3030 3031 3033 3036 3037 3038 3040 3039 3040 3039 3039 3039 3039 3036 3036 3033 3032 3026 3021 3018
3029 3022 3023 3018 3019 3021 3019 3018 3018 3019 3021 3020 3015 3018 3008 3017 3022 3024 3024 3023 3022 3021 3021 3022 3023 3024 3024 3027 3030 3032 3032 3033 3033 3032 3031 3033 3032 3029 3029 3026 3023 3019 3016 3011
3020 3012 3011 3010 3015 3014 3012 3012 3011 3014 3014 3016 3012 3005 3006 3009 3013 3015 3017 3015 3018 3015 3016 3018 3015 3014 3016 3020 3022 3025 3027 3026 3025 3024 3025 3025 3025 3023 3022 3019 3015 3012 3009 3004
3014 3012 3009 3005 3009 3007 3002 3000 3001 3001 3005 3003 3003 3001 3000 2999 3002 3005 3009 3007 3007 3007 3005 3007 3006 3007 3010 3015 3017 3020 3019 3017 3017 3018 3018 3018 3017 3015 3014 3012 3010 3005 3001 2998
3002 3006 3006 2998 2999 2993 2987 2989 2988 2990 2992 2996 2994 2992 2995 2994 2994 2994 2996 2997 2999 3002 2998 2998 2996 2998 3002 3006 3008 3011 3010 3010 3009 3012 3012 3012 3011 3010 3007 3005 3002 2999 2995 2992
2995 2997 2997 2995 2993 2986 2984 2981 2981 2983 2985 2987 2985 2986 2988 2988 2985 2983 2985 2987 2988 2989 2990 2990 2990 2993 2995 2997 2999 3002 3003 3004 3005 3006 3006 3005 3004 3003 3001 2998 2995 2993 2989 2986
2983 2986 2989 2988 2986 2983 2978 2980 2979 2980 2976 2978 2976 2977 2979 2979 2979 2977 2977 2978 2978 2977 2978 2980 2982 2984 2988 2991 2994 2996 2997 2999 2999 3002 3001 2998 2997 2996 2994 2991 2989 2986 2983 2979
2977 2976 2976 2978 2975 2970 2970 2975 2977 2974 2973 2970 2971 2973 2973 2974 2974 2970 2970 2972 2971 2972 2972 2976 2981 2983 2985 2986 2987 2990 2991 2993 2995 2993 2994 2992 2990 2989 2988 2985 2983 2979 2976 2973
2973 2974 2972 2972 2971 2968 2969 2969 2971 2970 2967 2964 2964 2966 2966 2967 2966 2966 2967 2967 2968 2968 2969 2970 2973 2975 2978 2981 2983 2984 2986 2987 2988 2988 2986 2985 2983 2983 2980 2978 2975 2973 2969 2967
2965 2967 2965 2964 2960 2961 2962 2963 2961 2961 2961 2960 2959 2960 2960 2959 2960 2962 2963 2964 2965 2966 2966 2965 2968 2970 2973 2976 2977 2980 2981 2981 2981 2980 2980 2979 2977 2976 2973 2971 2969 2966 2963 2961
2955 2958 2956 2955 2951 2953 2955 2956 2955 2954 2953 2954 2953 2954 2954 2955 2955 2956 2957 2960 2961 2962 2962 2964 2964 2966 2969 2969 2973 2975 2974 2975 2974 2975 2974 2973 2971 2969 2967 2965 2962 2960 2957 2954
2949 2950 2948 2944 2943 2947 2947 2949 2947 2944 2945 2948 2949 2948 2948 2949 2948 2947 2949 2953 2955 2956 2956 2958 2961 2962 2964 2966 2968 2968 2969 2969 2969 2969 2968 2967 2965 2962 2960 2958 2956 2954 2951 2947
2942 2942 2942 2937 2940 2940 2941 2940 2939 2935 2936 2939 2943 2940 2938 2941 2941 2940 2945 2947 2949 2951 2952 2955 2957 2958 2959 2961 2962 2963 2962 2964 2964 2963 2962 2961 2958 2956 2954 2952 2950 2947 2944 2941